When you browse on this site, cookies collect data to enhance your experience and personalize the content and advertising you see.
Visit our Privacy Policy to learn more. By continuing to use the site, you agree to this use of cookies and data.
  • In Czech Republic
  • List of Countries
  • For 7 days
  • Water Temperature
  • Satellite Maps
  • Weather Map
  • Weather Widgets
  • user-avatar
    Login

    Hourly Weather Alcala de Henares

    Today, 16 December, Sunday

    Time Temperature Precipitation Wind Pressure Humidity
    00:00 +8°C° 0 mm 3 mps 714 mmHg 95%
    01:00 +8°C° 0.1 mm 3 mps 713 mmHg 94%
    02:00 +8°C° 0.1 mm 3 mps 713 mmHg 94%
    03:00 +8°C° 0.1 mm 3 mps 713 mmHg 93%
    04:00 +7°C° 0.1 mm 4 mps 712 mmHg 93%
    05:00 +7°C° 0.1 mm 4 mps 712 mmHg 93%
    06:00 +7°C° 0 mm 4 mps 712 mmHg 91%
    07:00 +7°C° 0.3 mm 4 mps 711 mmHg 91%
    08:00 +8°C° 0.3 mm 5 mps 711 mmHg 90%
    09:00 +8°C° 0.3 mm 6 mps 711 mmHg 90%
    10:00 +9°C° 0.1 mm 6 mps 711 mmHg 87%
    11:00 +10°C° 0.1 mm 7 mps 711 mmHg 85%
    12:00 +10°C° 0.1 mm 8 mps 712 mmHg 83%
    13:00 +11°C° 0.2 mm 8 mps 712 mmHg 76%
    14:00 +11°C° 0.2 mm 8 mps 712 mmHg 69%
    15:00 +12°C° 0.2 mm 8 mps 712 mmHg 63%
    16:00 +10°C° 0 mm 6 mps 713 mmHg 66%
    17:00 +9°C° 0 mm 5 mps 713 mmHg 69%
    18:00 +8°C° 0 mm 4 mps 714 mmHg 73%
    19:00 +7°C° 0 mm 4 mps 714 mmHg 74%
    20:00 +7°C° 0 mm 3 mps 715 mmHg 76%
    21:00 +7°C° 0 mm 3 mps 716 mmHg 78%
    22:00 +6°C° 0 mm 2 mps 716 mmHg 78%
    23:00 +6°C° 0 mm 2 mps 717 mmHg 79%

    Tomorrow, 17 December, Monday

    Time Temperature Precipitation Wind Pressure Humidity
    00:00 +5°C° 0 mm 2 mps 717 mmHg 79%
    01:00 +6°C° 0 mm 1 mps 717 mmHg 80%
    02:00 +5°C° 0 mm 1 mps 717 mmHg 81%
    03:00 +5°C° 0 mm 1 mps 717 mmHg 83%
    04:00 +5°C° 0 mm 1 mps 717 mmHg 83%
    05:00 +4°C° 0 mm 1 mps 717 mmHg 83%
    06:00 +4°C° 0 mm 1 mps 718 mmHg 83%
    07:00 +5°C° 0 mm 1 mps 718 mmHg 79%
    08:00 +6°C° 0 mm 1 mps 718 mmHg 75%
    09:00 +6°C° 0 mm 1 mps 719 mmHg 72%
    10:00 +7°C° 0 mm 1 mps 718 mmHg 66%
    11:00 +9°C° 0 mm 1 mps 718 mmHg 60%
    12:00 +10°C° 0 mm 1 mps 718 mmHg 54%
    13:00 +10°C° 0 mm 1 mps 717 mmHg 53%
    14:00 +10°C° 0 mm 1 mps 717 mmHg 51%
    15:00 +11°C° 0 mm 1 mps 716 mmHg 49%
    16:00 +9°C° 0 mm 1 mps 716 mmHg 55%
    17:00 +8°C° 0 mm 1 mps 716 mmHg 60%
    18:00 +6°C° 0 mm 0 mps 716 mmHg 66%
    19:00 +6°C° 0 mm 1 mps 716 mmHg 66%
    20:00 +6°C° 0 mm 1 mps 717 mmHg 66%
    21:00 +6°C° 0 mm 1 mps 717 mmHg 66%
    22:00 +6°C° 0 mm 1 mps 716 mmHg 65%
    23:00 +6°C° 0 mm 1 mps 716 mmHg 65%

    Day after tomorrow, 18 December, Tuesday

    Time Temperature Precipitation Wind Pressure Humidity
    00:00 +6°C° 0 mm 1 mps 716 mmHg 65%
    01:00 +5°C° 0 mm 1 mps 715 mmHg 67%
    02:00 +5°C° 0 mm 1 mps 715 mmHg 68%
    03:00 +5°C° 0 mm 1 mps 715 mmHg 70%
    04:00 +3°C° 0 mm 2 mps 714 mmHg 71%
    05:00 +3°C° 0 mm 2 mps 714 mmHg 72%
    06:00 +3°C° 0 mm 2 mps 714 mmHg 73%
    07:00 +4°C° 0 mm 2 mps 714 mmHg 71%
    08:00 +5°C° 0 mm 2 mps 714 mmHg 70%
    09:00 +5°C° 0 mm 2 mps 714 mmHg 68%
    10:00 +7°C° 0 mm 3 mps 713 mmHg 63%
    11:00 +8°C° 0 mm 3 mps 713 mmHg 58%
    12:00 +10°C° 0 mm 4 mps 712 mmHg 53%
    13:00 +10°C° 0 mm 3 mps 712 mmHg 53%
    14:00 +10°C° 0 mm 3 mps 711 mmHg 52%
    15:00 +10°C° 0 mm 3 mps 711 mmHg 52%
    16:00 +10°C° 0.1 mm 2 mps 711 mmHg 56%
    17:00 +9°C° 0.1 mm 2 mps 711 mmHg 60%
    18:00 +8°C° 0.1 mm 2 mps 711 mmHg 63%
    19:00 +8°C° 0.2 mm 2 mps 712 mmHg 68%
    20:00 +9°C° 0.2 mm 2 mps 712 mmHg 72%
    21:00 +9°C° 0.2 mm 2 mps 712 mmHg 76%
    22:00 +9°C° 0.3 mm 2 mps 712 mmHg 79%
    23:00 +8°C° 0.3 mm 3 mps 712 mmHg 83%

    19 December, Wednesday

    Time Temperature Precipitation Wind Pressure Humidity
    00:00 +8°C° 0.3 mm 3 mps 712 mmHg 87%
    01:00 +8°C° 0 mm 2 mps 713 mmHg 88%
    02:00 +7°C° 0 mm 2 mps 713 mmHg 90%
    03:00 +7°C° 0 mm 2 mps 713 mmHg 91%
    04:00 +6°C° 0 mm 2 mps 713 mmHg 89%
    05:00 +5°C° 0 mm 2 mps 713 mmHg 88%
    06:00 +5°C° 0 mm 2 mps 713 mmHg 86%
    07:00 +5°C° 0 mm 2 mps 714 mmHg 82%
    08:00 +5°C° 0 mm 2 mps 715 mmHg 78%
    09:00 +7°C° 0 mm 1 mps 715 mmHg 74%
    10:00 +7°C° 0 mm 2 mps 715 mmHg 68%
    11:00 +8°C° 0 mm 2 mps 715 mmHg 61%
    12:00 +10°C° 0 mm 2 mps 715 mmHg 55%
    13:00 +10°C° 0 mm 3 mps 715 mmHg 54%
    14:00 +10°C° 0 mm 3 mps 715 mmHg 53%
    15:00 +10°C° 0 mm 3 mps 714 mmHg 52%
    16:00 +9°C° 0 mm 2 mps 715 mmHg 58%
    17:00 +8°C° 0 mm 2 mps 715 mmHg 64%
    18:00 +7°C° 0 mm 2 mps 715 mmHg 69%
    19:00 +6°C° 0 mm 2 mps 716 mmHg 72%
    20:00 +7°C° 0 mm 1 mps 716 mmHg 74%
    21:00 +6°C° 0 mm 1 mps 716 mmHg 77%
    22:00 +6°C° 0 mm 1 mps 716 mmHg 78%
    23:00 +6°C° 0 mm 1 mps 716 mmHg 78%

    20 December, Thursday

    Time Temperature Precipitation Wind Pressure Humidity
    00:00 +6°C° 0 mm 1 mps 716 mmHg 79%
    01:00 +6°C° 0 mm 1 mps 716 mmHg 79%
    02:00 +6°C° 0 mm 1 mps 716 mmHg 79%
    03:00 +6°C° 0 mm 1 mps 716 mmHg 80%
    04:00 +6°C° 0 mm 1 mps 716 mmHg 81%
    05:00 +6°C° 0 mm 1 mps 716 mmHg 82%
    06:00 +5°C° 0 mm 1 mps 716 mmHg 83%
    07:00 +6°C° 0 mm 1 mps 717 mmHg 80%
    08:00 +6°C° 0 mm 0 mps 717 mmHg 78%
    09:00 +6°C° 0 mm 0 mps 718 mmHg 75%
    10:00 +8°C° 0 mm 1 mps 718 mmHg 70%
    11:00 +10°C° 0 mm 1 mps 717 mmHg 65%
    12:00 +11°C° 0 mm 1 mps 717 mmHg 59%
    13:00 +11°C° 0 mm 1 mps 717 mmHg 58%
    14:00 +12°C° 0 mm 2 mps 717 mmHg 56%
    15:00 +12°C° 0 mm 2 mps 716 mmHg 55%
    16:00 +10°C° 0 mm 2 mps 717 mmHg 60%
    17:00 +8°C° 0 mm 2 mps 717 mmHg 66%
    18:00 +8°C° 0 mm 1 mps 717 mmHg 71%
    19:00 +8°C° 0 mm 1 mps 718 mmHg 72%
    20:00 +8°C° 0 mm 1 mps 718 mmHg 73%
    21:00 +8°C° 0 mm 1 mps 718 mmHg 73%
    22:00 +8°C° 0 mm 1 mps 718 mmHg 75%
    23:00 +7°C° 0 mm 1 mps 718 mmHg 76%

    21 December, Friday

    Time Temperature Precipitation Wind Pressure Humidity
    00:00 +6°C° 0 mm 2 mps 718 mmHg 77%
    01:00 +7°C° 0 mm 1 mps 718 mmHg 78%
    02:00 +7°C° 0 mm 1 mps 718 mmHg 80%
    03:00 +7°C° 0 mm 1 mps 718 mmHg 81%
    04:00 +7°C° 0 mm 1 mps 718 mmHg 81%
    05:00 +7°C° 0 mm 1 mps 718 mmHg 82%
    06:00 +7°C° 0 mm 1 mps 718 mmHg 82%
    07:00 +8°C° 0 mm 1 mps 718 mmHg 81%
    08:00 +8°C° 0 mm 1 mps 719 mmHg 80%
    09:00 +8°C° 0 mm 1 mps 719 mmHg 79%
    10:00 +10°C° 0 mm 1 mps 719 mmHg 76%
    11:00 +10°C° 0 mm 2 mps 719 mmHg 73%
    12:00 +12°C° 0 mm 2 mps 719 mmHg 70%
    13:00 +13°C° 0 mm 2 mps 719 mmHg 69%
    14:00 +13°C° 0 mm 2 mps 718 mmHg 68%
    15:00 +14°C° 0 mm 2 mps 718 mmHg 67%
    16:00 +13°C° 0 mm 2 mps 718 mmHg 73%
    17:00 +12°C° 0 mm 1 mps 718 mmHg 80%
    18:00 +10°C° 0 mm 1 mps 719 mmHg 86%
    19:00 +10°C° 0 mm 1 mps 719 mmHg 87%
    20:00 +10°C° 0 mm 1 mps 719 mmHg 88%
    21:00 +8°C° 0 mm 0 mps 719 mmHg 89%
    22:00 +8°C° 0 mm 0 mps 719 mmHg 89%
    23:00 +8°C° 0 mm 0 mps 719 mmHg 89%
    Show more